Find OneWeb SL0646

NORAD ID: 55810 Int'l Des: 2023-029 Owner: ONEWEBN Country: UK Constellation: oneweb operational
LEOCIRCULARPOLARONEWEB_TYPE

Live Position

Loading 3D Globe...

About OneWeb SL0646

Description loading...

Upcoming Passes

Passes for default location (London). Set your location on the main map for personalized predictions.

Altitude History

Loading altitude history...

Two-Line Element Set

1 55810U 23029Q 26125.44815127 .00000032 00000-0 46906-4 0 9997
2 55810 87.9148 313.4996 0001664 80.1435 279.9886 13.19724495153251
Epoch: May 5, 2026 • Age: 7 hours

Current Status

Altitude 1195.6 km
Velocity 7.25 km/s
Sub-Earth Point -25.54°S, 179.75°W
Launch Date Mar 9, 2023
Age 3.1 years
Type internet

Technical Details

Classification Payload
Mass 148.00 kg
Dry Mass 140.00 kg
Total Mass 148.00 kg
Length 1.30 m
Diameter 1.00 m
Span 5.00 m
Shape Trapezoid+2 pan
Manufacturer ONEWUS
Bus Type ARROW
Phase Status In Orbit
Owner/State ONEWEBN/UK

Most Searched